Starlink 34152

operational
NORAD ID: 64000 Int'l Des: 2025-101 Owner: SPXS Country: US Constellation: starlink
LEOCIRCULAR

About Starlink 34152

Description loading...

Live Position

Loading 3D Globe...

Upcoming Passes

Altitude History

Altitude vs Time

uPlot chart will show altitude changes over time

Two-Line Element Set

1 64000U 25101G 26062.00323098 .00036830 00000-0 13401-2 0 9991
2 64000 43.0005 35.6360 0001340 254.0687 106.0017 15.27607171 46032
Epoch: Mar 3, 2026 • Age: 20 hours

Current Status

Altitude 490.4 km
Velocity 7.62 km/s
Sub-Earth Point -30.88°S, 150.43°E
Launch Date May 14, 2025
Age 0.8 years
Type internet

Technical Details

Classification Payload
Mass 575.00 kg
Dry Mass 530.00 kg
Total Mass 575.00 kg
Length 0.30 m
Diameter 4.10 m
Span 29.00 m
Shape Box + pan
Manufacturer SPXS
Bus Type Starlink V2MO
Phase Status In Orbit
Owner/State SPXS/US

Large Constellations

Loading constellations...